Regional Weather Roundup
Issued by NWS Wakefield, VA

Home | Current Version | Previous Version | Text Only | Print | Product List | Glossary On
Versions: 1 2 3 4 5 6 7 8 9 10 11 12 13 14 15 16 17 18 19 20 21 22 23 24 25 26 27
000
ASUS41 KAKQ 261616
RWRAKQ

REGIONAL WEATHER ROUNDUP
NATIONAL WEATHER SERVICE WAKEFIELD VA
1200 PM EDT FRI MAY 26 2017

Note: "fair" indicates few or no clouds below 12,000 feet with no
significant weather and/or obstructions to visibility. * = Denotes
station may not report precipitation (e.g., rain,snow,etc.),
thunder or fog.

VAZ042-051-052>054-056-261700-
NORTHERN VIRGINIA

CITY           SKY/WX    TMP DP  RH WIND       PRES   REMARKS
WASH NATIONAL  PTSUNNY   71  58  63 W16G24    29.77R
DULLES         CLOUDY    70  57  63 W13G18    29.78R
FORT BELVOIR   MOSUNNY   69  60  74 W3        29.77S
QUANTICO       PTSUNNY   75  60  59 NW14      29.79S
FREDERICKSBRG* PTSUNNY   74  58  56 W14G20    29.78S
STAFFORD*      PTSUNNY   72  59  63 W8G16     29.83S
WARRENTON      CLOUDY    74  54  48 W7        29.79S
CULPEPER*      CLOUDY    73  58  59 W7        29.82R
MANASSAS*      CLOUDY    73  57  57 W12G26    29.79S
LEESBURG*      MOSUNNY   72  63  73 NW21G31   29.78F
WINCHESTER     CLOUDY    68  54  60 W15       29.80R
FRONT ROYAL*   CLOUDY    66  55  68 W8        29.81R
LURAY*         CLOUDY    66  54  63 SW14      29.83R
$$

VAZ048-049-060>072-079>083-261700-
CENTRAL AND SOUTH CENTRAL VIRGINIA

CITY           SKY/WX    TMP DP  RH WIND       PRES   REMARKS
RICHMOND       MOSUNNY   77  54  44 NW21G26   29.81S
CHESTERFIELD*  NOT AVBL
PETERSBURG*    MOSUNNY   76  55  47 W13       29.84R
HANOVER        MOSUNNY   77  54  44 W16G25    29.82R
TAPPAHANNOCK*  PTSUNNY   76  52  42 W8G16     29.80R
QUINTON*       FAIR      75  56  51 W13G24    29.80S
CHARLOTTSVILLE PTSUNNY   75  53  46 W9        29.83R
GORDONSVILLE*  PTSUNNY   74  53  48 W12G20    29.81R
ORANGE*        PTSUNNY   72  52  49 W10G22    29.82R
LOUISA*        MOSUNNY   79  57  47 W15G28    29.80S
BUMPASS*       PTSUNNY   73  55  53 W12G17    29.81R
FARMVILLE*     PTSUNNY   76  45  33 W8        29.85S
CREWE*         CLOUDY    74  47  38 W9        29.86R
FORT PICKETT*  CLOUDY    73  48  41 W14G23    29.86R
CHASE CITY*    PTSUNNY   72  50  45 W7G16     29.89R
CLARKSVILLE*   PTSUNNY   72  55  56 SW6       29.90R
SOUTH HILL*    PTSUNNY   74  56  53 NW9       29.94R
LAWRENCEVILLE* FAIR      74  55  49 W13G21    29.87R
EMPORIA*       SUNNY     73  55  53 SW9G21    29.87R
$$

VAZ088>098-261700-
SOUTHEAST VIRGINIA

CITY           SKY/WX    TMP DP  RH WIND       PRES   REMARKS
NORFOLK        SUNNY     77  57  50 W14G25    29.81R
VIRGINIA BEACH MOSUNNY   76  57  51 W14       29.80R
NORFOLK NAVAL  MOSUNNY   77  54  44 W16       29.82S
WEST POINT*    MOSUNNY   76  55  47 W14G20    29.81S
SALUDA*        FAIR      76  60  57 W7        29.79R
NEWPORT NEWS   SUNNY     76  57  51 W10       29.80S
LANGLEY AFB    SUNNY     76  59  56 W15G23    29.79S
FORT EUSTIS    SUNNY     77  58  51 NW13      29.79R
WILLIAMSBURG*  SUNNY     79  57  47 W14G24    29.81S
HR EXEC AP*    FAIR      77  59  53 W6        29.80S
FRANKLIN*      SUNNY     75  56  50 W12G21    29.84S
US460-WAKEFLD  SUNNY     76  56  49 W12G18    29.83R
$$

VAZ020-022-025-037-045-261700-
WEST CENTRAL AND SOUTHWEST VIRGINIA

CITY           SKY/WX    TMP DP  RH WIND       PRES   REMARKS
STAUNTON*      PTSUNNY   70  51  52 W8G17     29.88R
WAYNESBORO*    CLOUDY    67  52  59 W13G24    29.88R
HOT SPRINGS VA CLOUDY    57  43  58 W20G35    29.94R
LYNCHBURG      CLOUDY    72  52  49 W9G17     29.90R
DANVILLE       MOSUNNY   74  56  53 W13       29.91S
SOUTH BOSTON*  PTSUNNY   74  51  44 W8        29.90R
MARTINSVILLE   MOSUNNY   73  52  48 NW12G17   29.96R
ROANOKE        MOSUNNY   73  50  44 NW25G37   29.92S
BLACKSBURG     PTSUNNY   67  51  57 NW18G28   29.98R
DUBLIN*        PTSUNNY   69  45  43 W15G28    29.98S
MARION*        PTSUNNY   66  50  55 W14G24    30.02S
HILLSVILLE*    PTSUNNY   64  45  49 W16G22    29.99R
RICHLANDS*     FAIR      64  51  62 NW10G17   30.03S
WISE*          PTSUNNY   66  50  55 CALM      30.05S
ABINGDON*      PTSUNNY   67  55  66 NW8       30.02F
$$

MDZ021>025-VAZ099-100-261700-
SOUTHERN MARYLAND AND THE DELMARVA PENINSULA

CITY           SKY/WX    TMP DP  RH WIND       PRES   REMARKS
PATUXENT RIVER PTSUNNY   75  60  59 NW21G30   29.76S
BAY BRIDGE APT MOSUNNY   72  59  64 W14G21    29.73S
LEONARDTOWN    PTSUNNY   72  57  60 W15G22    29.79R
DOVER          PTSUNNY   71  66  84 W16G25    29.69S
GEORGETOWN     MOSUNNY   74  56  53 NW15G25   29.72S
EASTON         PTSUNNY   73  57  56 NW10G21   29.77S
CAMBRIDGE      PTSUNNY   73  59  60 W12G22    29.75S
SALISBURY      MOSUNNY   73  58  59 W20G25    29.73S
OCEAN CITY     PTSUNNY   72  56  57 NW15G22   29.73S
WALLOPS ISLAND MOSUNNY   74  60  61 W17G23    29.76R
ACCOMACK*      MOSUNNY   75  17  11 W18       29.78S
$$

NCZ012>017-030>032-261700-
NORTH CENTRAL AND EASTERN NORTH CAROLINA

CITY           SKY/WX    TMP DP  RH WIND       PRES   REMARKS
ROANOKE RAPIDS FAIR      75  54  46 W10G21    29.88R
RALEIGH        MOSUNNY   75  55  49 W12G21    29.93R
ELIZABETH CITY SUNNY     77  59  53 W22       29.84R
AHOSKIE*         N/A     74  55  51 NW5       29.86S
EDENTON*       SUNNY     78  55  45 W14G22    29.86S
CURRITUCK*     SUNNY     76  57  50 W15G25    29.83S
KILL DEVIL HLS SUNNY     74  57  55 W9G22     29.83S
MANTEO         SUNNY     75  58  55 NW13G21   29.86R
CAPE HATTERAS  SUNNY     77  59  53 W13G26    29.88S
TARBORO*       NOT AVBL
GOLDSBORO      SUNNY     78  54  44 W15       29.90S
WASHINGTON     SUNNY     76  54  46 NW14G20   29.89S
GREENVILLE     SUNNY     77  54  44 NW13G20   29.92S
NEW BERN       MOSUNNY   78  56  46 W16G25    29.91F
WILMINGTON     SUNNY     80  57  45 NW12      29.94S
$$

VAZ048-261700-
ELSEWHERE

CITY           SKY/WX    TMP DP  RH WIND       PRES   REMARKS
HARRISBURG PA  CLOUDY    71  57  61 W18G24    29.68S
BALTIMORE      PTSUNNY   72  58  61 W20G29    29.73R
ANNAPOLIS      PTSUNNY   74  59  59 W10G23    29.74R
ANDREWS AFB    PTSUNNY   69  56  62 W12G26    29.77R
PHILADELPHIA   PTSUNNY   73  55  53 W15G24    29.66S
HENDERSON NC   MOSUNNY   71  53  53 W10G17    29.91R
GREENSBORO     PTSUNNY   74  56  53 NW15G22   29.94S
ROCKY MOUNT    MOSUNNY   76  55  48 NW15G23   29.90S
$$

VAZ100-261700-
MARINE

STATION/POSITION TIME  TEMP    WIND        PRES    WAVE   SWELL
                       AIR SEA DIR/SP/G            HT/PER HT/PER
                 (UTC) (F)     (DEG/KT/KT) (MB)    (FT/S) (FT/S)
CAPE MAY NJ      1548   68 62  300/ 11/ 17 1005.4R
LEWES DE         1542   69 62  300/ 27/ 31 1005.9R
15NM E FENWICK I 1550   63 58  280/  8/  8 1006.6R   4/ 8   3/ 8
WACHAPREAGUE VA  1548   75 67  250/  7/ 17 1007.8S
THOMAS POINT MD  1600   70 64  280/ 21/ 23   N/A
GOOSES REEF MD   1600   70 63  280/ 16/ 23 1008.8    2/ 2
COVE POINT MD    1548   71     310/ 17/ 22 1008.2S
SOLOMONS ISLAND  1548   72 67  290/ 12/ 19   N/A
BISHOPS HEAD MD  1548   70 69  290/ 15/ 16 1008.2F
PINEY POINT MD   1542          320/ 14/ 15   N/A
POTOMAC MD       1600   70 67  310/ 12/ 14 1007.4    2/ 3
CAMBRIDGE MD     1542   75 68                N/A
LEWISETTA VA     1548   73 68  290/ 10/ 13 1008.2R
RAPPAHANNOCK LGT 1542          260/ 12/ 13 1009.1R
STINGRAY PT      1550   71     320/ 12/ 16 1009.4R
YORK RVR RNG VA  1548   72     290/ 13/ 16 1008.3R
YORKTOWN VA      1548   73 69  300/ 15/ 18 1008.9R
JAMESTOWN VA     1600   72 71  280/ 14/ 16   N/A     1
DOMINION TERM VA 1548   72     290/ 12/ 14 1009.5R
KIPTOPEKE VA     1542      66  290/ 11/ 13   N/A
CHES BAY BRIDGE  1548   70 66  280/ 15/ 16 1009.1R
CAPE HENRY VA    1548   73     280/ 13/ 17   N/A
WILLOUBY STN VA  1548   72     270/ 16/ 18 1009.1R
S CRANEY ISL VA  1548   75     260/  9/ 15 1009.3R
CAPE HENRY BUOY  1542      63                N/A     3/ 7
1ST LANDING BUOY 1600   71 67              1009.4    2/ 3
CAPE CHARLES BUO 1551      62                N/A     3/ 8
64NM E OF VA BCH 1550   64 61  260/ 12/ 14 1009.8R   6/ 7   5/ 7
DUCK PIER NC     1548   73 62  270/ 18/ 24 1009.7F
44100 DUCK FRF   1505      63                N/A     3/ 8
44056 DUCK FRF   1530      62                N/A     2/ 9
OREGON INLET NC  1542   74 70  270/ 14/ 18 1010.5S
HATTERAS NC      1542   73 71  270/ 23/ 25 1011.7R
DIAMOND SHLS NC  1550   73 79  270/ 21/ 25 1011.8R   8/ 8
CAPE LOOKOUT NC  1500   74     260/ 14/ 17 1012.6S
$$




USA.gov is the U.S. government's official web portal to all federal, state and local government web resources and services.